Estación de Odessa

Ultimos registro cada 15 minutos 53
Estación Fecha / Hora Temperatura Humedad Lluvia Velocidad Dirección Radiación Presion
53 Odessa 05-05-2026 13:00 17,8 76 0 1,3 45 265 1013,7
52 Odessa 05-05-2026 12:45 17,7 71 0 0,9 46 223 1014
51 Odessa 05-05-2026 12:30 17,7 72 0 0,9 29 234 1014
50 Odessa 05-05-2026 12:15 17,5 76 0 0,4 10 279 1014,1
49 Odessa 05-05-2026 12:00 16,9 79 0 0 2 269 1014,1
48 Odessa 05-05-2026 11:45 16,5 80 0 0,9 354 278 1014,3
47 Odessa 05-05-2026 11:30 16,3 80 0 0,9 304 281 1014,3
46 Odessa 05-05-2026 11:15 16,2 80 0 1,3 294 227 1014,3
45 Odessa 05-05-2026 11:00 15,9 80 0 0,4 310 276 1014,5
44 Odessa 05-05-2026 10:45 15,7 79 0 0,4 315 202 1014,7
43 Odessa 05-05-2026 10:30 15,5 81 0 0,4 336 211 1014,8
42 Odessa 05-05-2026 10:15 14,9 83 0 0 34 162 1014,7
41 Odessa 05-05-2026 10:00 14,3 84 0 1,3 108 163 1014,6
40 Odessa 05-05-2026 09:45 13,6 88 0 0,9 139 320 1015
39 Odessa 05-05-2026 09:30 12,8 88 0 2,7 136 200 1015
38 Odessa 05-05-2026 09:15 12,3 89 0 1,8 165 139 1015,2
37 Odessa 05-05-2026 09:00 11,8 90 0 0,9 164 104 1015,2
36 Odessa 05-05-2026 08:45 11,3 90 0 1,3 171 98 1015,4
35 Odessa 05-05-2026 08:30 10,9 91 0 0,9 187 72 1015,1
34 Odessa 05-05-2026 08:15 10,4 92 0 1,3 137 51 1014,5
33 Odessa 05-05-2026 08:00 10,3 91 0 0 296 25 1014,9
32 Odessa 05-05-2026 07:45 10,6 91 0 0,4 170 11 1014,8
31 Odessa 05-05-2026 07:30 10,7 91 0 0,4 199 0 1014,9
30 Odessa 05-05-2026 07:15 10,9 90 0 4 289 0 1015,9
29 Odessa 05-05-2026 07:00 11,1 91 0 0,4 26 0 1014,7
28 Odessa 05-05-2026 06:45 11,2 91 0 1,3 278 0 1016
27 Odessa 05-05-2026 06:30 11,1 93 0 1,8 41 0 1015,6
26 Odessa 05-05-2026 06:15 10,7 94 0 2,7 97 0 1015
25 Odessa 05-05-2026 06:00 10,3 93 0 0,9 1 0 1017
24 Odessa 05-05-2026 05:45 10,4 93 0 0,4 323 0 1016,3
23 Odessa 05-05-2026 05:30 10,5 93 0 0,9 265 0 1016,2
22 Odessa 05-05-2026 05:15 10,3 93 0 1,3 137 0 1015,8
21 Odessa 05-05-2026 05:00 10,2 94 0 0 300 0 1016,7
20 Odessa 05-05-2026 04:45 9,8 93 0 0 101 0 1016,6
19 Odessa 05-05-2026 04:30 9,8 93 0 0 82 0 1016,6
18 Odessa 05-05-2026 04:15 9,6 93 0 0 107 0 1016,5
17 Odessa 05-05-2026 04:00 9,4 93 0 0 107 0 1015,9
16 Odessa 05-05-2026 03:45 9,3 93 0 0 123 0 1015,9
15 Odessa 05-05-2026 03:30 9,3 93 0 0 143 0 1016,1
14 Odessa 05-05-2026 03:15 9,3 93 0 0 106 0 1016,1
13 Odessa 05-05-2026 03:00 9,2 94 0 0 106 0 1016,1
12 Odessa 05-05-2026 02:45 9,1 94 0 0 106 0 1016,2
11 Odessa 05-05-2026 02:30 9,1 94 0 0 106 0 1016,4
10 Odessa 05-05-2026 02:15 9,2 94 0 0 106 0 1016,6
9 Odessa 05-05-2026 02:00 9,1 94 0 0 106 0 1016,6
8 Odessa 05-05-2026 01:45 8,9 94 0 0 106 0 1016,5
7 Odessa 05-05-2026 01:30 8,7 94 0 0 106 0 1016,5
6 Odessa 05-05-2026 01:15 8,5 93 0 0 106 0 1016,6
5 Odessa 05-05-2026 01:00 8,4 93 0 0 106 0 1016,7
4 Odessa 05-05-2026 00:45 8,9 93 0 0 65 0 1016,9
3 Odessa 05-05-2026 00:30 9,2 93 0 0 65 0 1016,9
2 Odessa 05-05-2026 00:15 9,4 93 0 0 65 0 1017,1
1 Odessa 05-05-2026 00:00 9,5 93 0 0 65 0 1017